H1 CPF 2 NER 2025 10 12 9 285 01 glonass137 H2 1705501 9137 42939 2025 10 12 0 0 0 2025 10 15 23 45 0 900 1 1 0 0 0 1 H9 10 0 60960 0.00000 0 -909219.562 -11133799.855 22943961.734 10 0 60960 900.00000 0 1907850.065 -11254499.193 22821511.792 10 0 60960 1800.00000 0 4667299.201 -11571513.637 22256344.133 10 0 60960 2700.00000 0 7302675.738 -12068053.368 21259318.809 10 0 60960 3600.00000 0 9752314.698 -12716182.236 19849671.246 10 0 60960 4500.00000 0 11961656.714 -13478020.345 18054649.810 10 0 60960 5400.00000 0 13885275.469 -14307383.611 15908998.067 10 0 60960 6300.00000 0 15488530.223 -15151792.291 13454290.660 10 0 60960 7200.00000 0 16748774.797 -15954764.620 10738134.621 10 0 60960 8100.00000 0 17656072.626 -16658299.357 7813250.759 10 0 60960 9000.00000 0 18213388.057 -17205442.601 4736452.347 10 0 60960 9900.00000 0 18436245.937 -17542830.147 1567540.745 10 0 60960 10800.00000 0 18351873.906 -17623097.216 -1631860.467 10 0 60960 11700.00000 0 17997863.967 -17407052.693 -4799509.678 10 0 60960 12600.00000 0 17420410.149 -16865524.533 -7873765.581 10 0 60960 13500.00000 0 16672197.484 -15980796.917 -10794794.985 10 0 60960 14400.00000 0 15810032.393 -14747577.105 -13505745.602 10 0 60960 15300.00000 0 14892315.447 -13173449.688 -15953860.003 10 0 60960 16200.00000 0 13976464.301 -11278797.889 -18091508.299 10 0 60960 17100.00000 0 13116396.482 -9096194.207 -19877118.875 10 0 60960 18000.00000 0 12360178.969 -6669285.150 -21275988.800 10 0 60960 18900.00000 0 11747944.163 -4051216.205 -22260958.149 10 0 60960 19800.00000 0 11310160.255 -1302662.452 -22812935.373 10 0 60960 20700.00000 0 11066328.741 1510453.280 -22921263.936 10 0 60960 21600.00000 0 11024163.543 4319459.910 -22583923.609 10 0 60960 22500.00000 0 11179285.716 7055551.552 -21807563.108 10 0 60960 23400.00000 0 11515445.886 9652406.600 -20607363.939 10 0 60960 24300.00000 0 12005264.298 12048704.132 -19006738.592 10 0 60960 25200.00000 0 12611456.579 14190433.754 -17036869.263 10 0 60960 26100.00000 0 13288492.898 16032903.711 -14736096.372 10 0 60960 27000.00000 0 13984620.051 17542364.800 -12149168.934 10 0 60960 27900.00000 0 14644160.768 18697183.732 -9326371.481 10 0 60960 28800.00000 0 15209992.929 19488518.405 -6322544.669 10 0 60960 29700.00000 0 15626103.875 19920468.415 -3196018.714 10 0 60960 30600.00000 0 15840111.880 20009696.070 -7480.502 10 0 60960 31500.00000 0 15805648.319 19784535.287 3181203.467 10 0 60960 32400.00000 0 15484499.972 19283627.125 6308185.367 10 0 60960 33300.00000 0 14848421.078 18554140.369 9312832.328 10 0 60960 34200.00000 0 13880538.639 17649652.819 12136897.570 10 0 60960 35100.00000 0 12576291.562 16627782.839 14725643.972 10 0 60960 36000.00000 0 10943863.725 15547670.947 17028898.738 10 0 60960 36900.00000 0 9004092.109 14467417.145 19002019.251 10 0 60960 37800.00000 0 6789852.916 13441581.295 20606752.134 10 0 60960 38700.00000 0 4344950.152 12518850.934 21811969.612 10 0 60960 39600.00000 0 1722551.617 11739973.769 22594269.582 10 0 60960 40500.00000 0 -1016764.115 11136040.994 22938428.367 10 0 60960 41400.00000 0 -3807270.210 10727192.930 22837697.702 10 0 60960 42300.00000 0 -6580571.255 10521800.994 22293940.264 10 0 60960 43200.00000 0 -9268198.734 10516160.295 21317600.872 10 0 60960 44100.00000 0 -11804216.007 10694705.991 19927513.291 10 0 60960 45000.00000 0 -14127725.713 11030744.797 18150545.561 10 0 60960 45900.00000 0 -16185176.267 11487671.520 16021089.672 10 0 60960 46800.00000 0 -17932372.033 12020620.114 13580404.333 10 0 60960 47700.00000 0 -19336103.595 12578480.308 10875822.569 10 0 60960 48600.00000 0 -20375330.105 13106195.148 7959838.594 10 0 60960 49500.00000 0 -21041864.208 13547242.600 4889091.078 10 0 60960 50400.00000 0 -21340530.636 13846196.094 1723262.339 10 0 60960 51300.00000 0 -21288791.759 13951255.107 -1476085.058 10 0 60960 52200.00000 0 -20915855.894 13816637.728 -4646711.217 10 0 60960 53100.00000 0 -20261306.137 13404732.665 -7726917.160 10 0 60960 54000.00000 0 -19373308.141 12687918.273 -10656753.752 10 0 60960 54900.00000 0 -18306473.042 11649970.088 -13379196.804 10 0 60960 55800.00000 0 -17119466.584 10286995.980 -15841264.454 10 0 60960 56700.00000 0 -15872466.184 8607858.053 -17995054.303 10 0 60960 57600.00000 0 -14624573.925 6634062.228 -19798679.591 10 0 60960 58500.00000 0 -13431295.266 4399119.141 -21217085.854 10 0 60960 59400.00000 0 -12342190.092 1947402.349 -22222732.206 10 0 60960 60300.00000 0 -11398795.099 -667449.048 -22796124.221 10 0 60960 61200.00000 0 -10632904.747 -3384517.072 -22926188.469 10 0 60960 62100.00000 0 -10065282.586 -6137898.341 -22610481.962 10 0 60960 63000.00000 0 -9704856.341 -8859209.199 -21855233.002 10 0 60960 63900.00000 0 -9548429.665 -11480198.542 -20675213.194 10 0 60960 64800.00000 0 -9580921.572 -13935360.138 -19093443.543 10 0 60960 65700.00000 0 -9776122.364 -16164436.313 -17140740.753 10 0 60960 66600.00000 0 -10097933.168 -18114709.553 -14855112.780 10 0 60960 67500.00000 0 -10502035.858 -19742987.429 -12281015.618 10 0 60960 68400.00000 0 -10937922.158 -21017199.203 -9468485.865 10 0 60960 69300.00000 0 -11351195.644 -21917538.611 -6472166.091 10 0 60960 70200.00000 0 -11686048.948 -22437106.377 -3350242.070 10 0 60960 71100.00000 0 -11887811.234 -22582026.930 -163312.627 10 0 60960 72000.00000 0 -11905458.072 -22371035.718 3026785.777 10 0 60960 72900.00000 0 -11693977.589 -21834555.705 6158176.836 10 0 60960 73800.00000 0 -11216492.874 -21013302.857 9170141.299 10 0 60960 74700.00000 0 -10446050.965 -19956479.995 12004289.857 10 0 60960 75600.00000 0 -9367002.779 -18719635.430 14605689.513 10 0 60960 76500.00000 0 -7975915.515 -17362276.505 16923922.058 10 0 60960 77400.00000 0 -6281978.587 -15945338.130 18914054.693 10 0 60960 78300.00000 0 -4306885.174 -14528612.134 20537504.661 10 0 60960 79200.00000 0 -2084193.211 -13168244.579 21762781.939 10 0 60960 80100.00000 0 341808.903 -11914405.170 22566096.239 10 0 60960 81000.00000 0 2917686.164 -10809225.558 22931817.180 10 0 60960 81900.00000 0 5582826.222 -9885092.041 22852779.046 10 0 60960 82800.00000 0 8271713.896 -9163363.583 22330424.310 10 0 60960 83700.00000 0 10916418.143 -8653568.344 21374782.871 10 0 60960 84600.00000 0 13449189.743 -8353112.214 20004286.853 10 0 60960 85500.00000 0 15805062.979 -8247511.616 18245423.674 10 0 60961 0.00000 0 17924353.959 -8311140.999 16132233.323 10 0 60961 900.00000 0 19754953.280 -8508464.009 13705657.220 10 0 60961 1800.00000 0 21254314.869 -8795696.734 11012753.179 10 0 60961 2700.00000 0 22391061.813 -9122833.259 8105787.028 10 0 60961 3600.00000 0 23146138.866 -9435948.060 5041220.631 10 0 60961 4500.00000 0 23513464.106 -9679677.676 1878614.667 10 0 60961 5400.00000 0 23500051.967 -9799776.162 -1320532.247 10 0 60961 6300.00000 0 23125602.099 -9745635.230 -4493985.098 10 0 60961 7200.00000 0 22421571.379 -9472661.194 -7579990.532 10 0 60961 8100.00000 0 21429768.377 -8944406.708 -10518486.788 10 0 60961 9000.00000 0 20200529.884 -8134365.565 -13252280.992 10 0 60961 9900.00000 0 18790556.993 -7027353.148 -15728169.879 10 0 60961 10800.00000 0 17260502.544 -5620412.698 -17897981.346 10 0 60961 11700.00000 0 15672412.322 -3923207.832 -19719515.993 10 0 60961 12600.00000 0 14087128.303 -1957883.589 -21157370.008 10 0 60961 13500.00000 0 12561763.642 241599.129 -22183623.353 10 0 60961 14400.00000 0 11147355.636 2630628.691 -22778380.124 10 0 60961 15300.00000 0 9886795.117 5155559.247 -22930150.961 10 0 60961 16200.00000 0 8813118.642 7755711.612 -22636070.616 10 0 60961 17100.00000 0 7948234.345 10365675.487 -21901947.023 10 0 60961 18000.00000 0 7302133.801 12917817.382 -20742141.459 10 0 60961 18900.00000 0 6872621.699 15344890.219 -19179282.589 10 0 60961 19800.00000 0 6645573.248 17582636.367 -17243820.340 10 0 60961 20700.00000 0 6595707.076 19572276.211 -14973428.528 10 0 60961 21600.00000 0 6687839.726 21262779.197 -12412268.083 10 0 60961 22500.00000 0 6878567.675 22612823.443 -9610125.279 10 0 60961 23400.00000 0 7118304.896 23592362.940 -6621441.925 10 0 60961 24300.00000 0 7353589.128 24183737.893 -3504256.436 10 0 60961 25200.00000 0 7529558.812 24382282.814 -319076.495 10 0 60961 26100.00000 0 7592495.585 24196407.985 2872294.644 10 0 60961 27000.00000 0 7492324.601 23647151.942 6007955.338 10 0 60961 27900.00000 0 7184966.858 22767224.688 9027103.003 10 0 60961 28800.00000 0 6634444.035 21599582.521 11871208.665 10 0 60961 29700.00000 0 5814646.869 20195594.805 14485146.084 10 0 60961 30600.00000 0 4710692.226 18612879.754 16818254.026 10 0 60961 31500.00000 0 3319811.307 16912899.922 18825311.593 10 0 60961 32400.00000 0 1651730.938 15158417.721 20467408.452 10 0 60961 33300.00000 0 -271469.078 13410916.859 21712693.816 10 0 60961 34200.00000 0 -2416017.845 11728096.748 22536990.367 10 0 60961 35100.00000 0 -4737608.395 10161543.687 22924261.813 10 0 60961 36000.00000 0 -7182999.444 8754675.187 22866925.393 10 0 60961 36900.00000 0 -9691998.934 7541042.442 22366003.336 10 0 60961 37800.00000 0 -12199748.645 6543061.170 21431110.135 10 0 60961 38700.00000 0 -14639216.513 5771223.321 20080275.287 10 0 60961 39600.00000 0 -16943794.360 5223822.326 18339604.141 10 0 60961 40500.00000 0 -19049894.034 4887203.271 16242782.370 10 0 60961 41400.00000 0 -20899434.515 4736527.483 13830432.567 10 0 60961 42300.00000 0 -22442116.550 4737019.473 11149334.388 10 0 60961 43200.00000 0 -23637389.794 4845643.779 8251522.448 10 0 60961 44100.00000 0 -24456029.742 5013140.919 5193278.844 10 0 60961 45000.00000 0 -24881258.060 5186336.185 2034039.611 10 0 60961 45900.00000 0 -24909358.543 5310623.125 -1164763.575 10 0 60961 46800.00000 0 -24549762.177 5332515.754 -4340903.523 10 0 60961 47700.00000 0 -23824597.568 5202160.315 -7432575.352 10 0 60961 48600.00000 0 -22767725.298 4875698.872 -10379607.409 10 0 60961 49500.00000 0 -21423297.052 4317383.213 -13124640.726 10 0 60961 50400.00000 0 -19843900.505 3501348.103 -15614253.021 10 0 60961 51300.00000 0 -18088368.469 2412967.417 -17800004.593 10 0 60961 52200.00000 0 -16219345.054 1049734.488 -19639385.160 10 0 60961 53100.00000 0 -14300711.705 -578371.644 -21096642.877 10 0 60961 54000.00000 0 -12394981.631 -2449050.599 -22143479.401 10 0 60961 54900.00000 0 -10560772.126 -4528369.620 -22759597.686 10 0 60961 55800.00000 0 -8850460.660 -6771948.947 -22933092.270 10 0 60961 56700.00000 0 -7308122.491 -9126594.580 -22660674.996 10 0 60961 57600.00000 0 -5967835.354 -11532310.642 -21947732.342 10 0 60961 58500.00000 0 -4852421.145 -13924607.707 -20808213.793 10 0 60961 59400.00000 0 -3972675.898 -16237011.114 -19264353.901 10 0 60961 60300.00000 0 -3327118.773 -18403665.050 -17346233.805 10 0 60961 61200.00000 0 -2902268.912 -20361924.139 -15091191.009 10 0 60961 62100.00000 0 -2673436.879 -22054824.878 -12543089.123 10 0 60961 63000.00000 0 -2605995.789 -23433334.298 -9751461.837 10 0 60961 63900.00000 0 -2657077.192 -24458282.503 -6770547.972 10 0 60961 64800.00000 0 -2777619.001 -25101899.010 -3658236.445 10 0 60961 65700.00000 0 -2914678.041 -25348889.384 -474941.756 10 0 60961 66600.00000 0 -3013908.840 -25197007.880 2717567.989 10 0 60961 67500.00000 0 -3022103.393 -24657102.933 5857367.685 10 0 60961 68400.00000 0 -2889684.271 -23752634.319 8883573.236 10 0 60961 69300.00000 0 -2573045.538 -22518682.870 11737517.781 10 0 60961 70200.00000 0 -2036642.496 -21000494.659 14363883.577 10 0 60961 71100.00000 0 -1254741.924 -19251620.847 16711768.028 10 0 60961 72000.00000 0 -212758.762 -17331730.983 18735663.716 10 0 60961 72900.00000 0 1091877.482 -15304190.870 20396334.155 10 0 60961 73800.00000 0 2649363.801 -13233505.563 21661569.041 10 0 60961 74700.00000 0 4437688.338 -11182733.474 22506805.054 10 0 60961 75600.00000 0 6423313.090 -9210978.462 22915600.784 10 0 60961 76500.00000 0 8562347.766 -7371063.424 22879956.969 10 0 60961 77400.00000 0 10802167.564 -5707481.387 22400475.902 10 0 60961 78300.00000 0 13083409.223 -4254708.576 21486356.735 10 0 60961 79200.00000 0 15342263.934 -3035949.044 20155226.183 10 0 60961 80100.00000 0 17512973.089 -2062362.719 18432807.128 10 0 60961 81000.00000 0 19530424.049 -1332808.702 16352430.495 10 0 60961 81900.00000 0 21332738.563 -834114.329 13954398.762 10 0 60961 82800.00000 0 22863746.115 -541858.541 11285212.378 10 0 60961 83700.00000 0 24075238.805 -421636.482 8396673.193 10 0 60961 84600.00000 0 24928913.061 -430751.885 5344881.630 10 0 60961 85500.00000 0 25397916.126 -520265.477 2189146.823 10 0 60962 0.00000 0 25467931.587 -637312.321 -1009168.800 10 0 60962 900.00000 0 25137757.584 -727589.349 -4187849.271 10 0 60962 1800.00000 0 24419352.475 -737906.573 -7285040.884 10 0 60962 2700.00000 0 23337345.714 -618692.884 -10240465.133 10 0 60962 3600.00000 0 21928034.127 -326348.805 -12996599.921 10 0 60962 4500.00000 0 20237905.792 174654.802 -15499806.774 10 0 60962 5400.00000 0 18321753.783 910022.306 -17701381.013 10 0 60962 6300.00000 0 16240459.407 1894298.635 -19558503.839 10 0 60962 7200.00000 0 14058538.361 3130011.918 -21035077.471 10 0 60962 8100.00000 0 11841553.109 4607330.615 -22102427.046 10 0 60962 9000.00000 0 9653500.087 6304250.453 -22739855.837 10 0 60962 9900.00000 0 7554281.049 8187303.998 -22935043.378 10 0 60962 10800.00000 0 5597363.982 10212763.684 -22684279.300 10 0 60962 11700.00000 0 3827730.640 12328288.359 -21992528.882 10 0 60962 12600.00000 0 2280195.499 14474944.810 -20873329.621 10 0 60962 13500.00000 0 978165.028 16589520.051 -19348521.289 10 0 60962 14400.00000 0 -67112.413 18607028.055 -17447815.114 10 0 60962 15300.00000 0 -856776.390 20463306.436 -15208210.729 10 0 60962 16200.00000 0 -1404056.143 22097594.880 -12673272.454 10 0 60962 17100.00000 0 -1733458.607 23454987.907 -9892279.069 10 0 60962 18000.00000 0 -1879478.565 24488659.709 -6919263.778 10 0 60962 18900.00000 0 -1884886.740 25161768.456 -3811963.116 10 0 60962 19800.00000 0 -1798669.311 25448960.800 -630695.349 10 0 60962 20700.00000 0 -1673706.813 25337414.104 2562809.711 10 0 60962 21600.00000 0 -1564291.189 24827373.263 5706606.648 10 0 60962 22500.00000 0 -1523586.396 23932160.131 8739732.933 10 0 60962 23400.00000 0 -1601140.129 22677655.598 11603386.762 10 0 60962 24300.00000 0 -1840551.904 21101276.283 14242061.634 10 0 60962 25200.00000 0 -2277396.008 19250488.772 16604616.105 10 0 60962 26100.00000 0 -2937487.020 17180923.396 18645258.482 10 0 60962 27000.00000 0 -3835561.207 14954165.960 20324428.090 10 0 60962 27900.00000 0 -4974429.739 12635318.911 21609556.764 10 0 60962 28800.00000 0 -6344640.033 10290432.801 22475696.504 10 0 60962 29700.00000 0 -7924660.479 7983913.990 22906001.739 10 0 60962 30600.00000 0 -9681582.198 5776015.356 22892057.248 10 0 60962 31500.00000 0 -11572310.028 3720513.362 22434045.484 10 0 60962 32400.00000 0 -13545194.699 1862667.035 21540749.865 10 0 60962 33300.00000 0 -15542039.788 237542.887 20229393.417 10 0 60962 34200.00000 0 -17500401.203 -1131225.149 18525315.130 10 0 60962 35100.00000 0 -19356084.566 -2232189.677 16461489.263 10 0 60962 36000.00000 0 -21045737.125 -3066326.594 14077895.801 10 0 60962 36900.00000 0 -22509426.359 -3646745.062 11420753.240 10 0 60962 37800.00000 0 -23693097.424 -3997883.107 8541627.620 10 0 60962 38700.00000 0 -24550806.214 -4154223.012 5496434.451 10 0 60962 39600.00000 0 -25046633.642 -4158580.962 2344352.613 10 0 60962 40500.00000 0 -25156199.812 -4060043.679 -853328.632 10 0 60962 41400.00000 0 -24867713.399 -3911639.977 -4034406.710 10 0 60962 42300.00000 0 -24182510.998 -3767846.709 -7136982.881 10 0 60962 43200.00000 0 -23115062.938 -3682035.858 -10100674.855 10 0 60962 44100.00000 0 -21692444.608 -3703972.175 -12867800.302 10 0 60962 45000.00000 0 -19953295.129 -3877468.642 -15384507.200 10 0 60962 45900.00000 0 -17946307.028 -4238300.336 -17601828.184 10 0 60962 46800.00000 0 -15728310.285 -4812466.154 -19476637.812 10 0 60962 47700.00000 0 -13362031.373 -5614872.971 -20972493.724 10 0 60962 48600.00000 0 -10913621.440 -6648498.674 -22060345.313 10 0 60962 49500.00000 0 -8450057.155 -7904070.130 -22719096.325 10 0 60962 50400.00000 0 -6036522.911 -9360270.228 -22936010.823 10 0 60962 51300.00000 0 -3733883.425 -10984465.753 -22706955.172 10 0 60962 52200.00000 0 -1596351.631 -12733925.921 -22036471.897 10 0 60962 53100.00000 0 330551.691 -14557480.699 -20937684.523 10 0 60962 54000.00000 0 2011662.612 -16397549.693 -19432035.729 10 0 60962 54900.00000 0 3423395.106 -18192456.783 -17548864.283 10 0 60962 55800.00000 0 4554469.098 -19878933.765 -15324829.251 10 0 60962 56700.00000 0 5406116.948 -21394708.353 -12803192.897 10 0 60962 57600.00000 0 5991761.619 -22681068.336 -10032976.321 10 0 60962 58500.00000 0 6336181.906 -23685294.679 -7068004.394 10 0 60962 59400.00000 0 6474201.577 -24362861.843 -3965858.671 10 0 60962 60300.00000 0 6448959.142 -24679313.356 -786758.714 10 0 60962 61200.00000 0 6309832.455 -24611734.269 2407606.257 10 0 60962 62100.00000 0 6110106.730 -24149759.072 5555272.636 10 0 60962 63000.00000 0 5904485.077 -23296073.061 8595201.398 10 0 60962 63900.00000 0 5746547.159 -22066386.361 11468457.536 10 0 60962 64800.00000 0 5686263.435 -20488881.817 14119347.337 10 0 60962 65700.00000 0 5767669.984 -18603159.753 16496491.834 10 0 60962 66600.00000 0 6026801.952 -16458723.484 18553816.162 10 0 60962 67500.00000 0 6489972.720 -14113068.331 20251436.308 10 0 60962 68400.00000 0 7172471.393 -11629453.076 21556426.839 10 0 60962 69300.00000 0 8077733.747 -9074445.787 22443455.397 10 0 60962 70200.00000 0 9197022.108 -6515345.027 22895272.312 10 0 60962 71100.00000 0 10509628.574 -4017582.434 22903046.224 10 0 60962 72000.00000 0 11983594.310 -1642213.426 22466539.343 10 0 60962 72900.00000 0 13576916.276 556400.883 21594118.747 10 0 60962 73800.00000 0 15239192.462 2532625.294 20302603.016 10 0 60962 74700.00000 0 16913638.345 4251211.987 18616946.331 10 0 60962 75600.00000 0 18539391.569 5688523.380 16569765.220 10 0 60962 76500.00000 0 20054009.500 6833265.922 14200715.966 10 0 60962 77400.00000 0 21396055.645 7686704.490 11555733.712 10 0 60962 78300.00000 0 22507666.836 8262348.810 8686147.096 10 0 60962 79200.00000 0 23336993.228 8585125.359 5647684.904 10 0 60962 80100.00000 0 23840407.914 8690069.905 2499393.731 10 0 60962 81000.00000 0 23984392.451 8620596.386 -697512.281 10 0 60962 81900.00000 0 23747017.638 8426415.776 -3880846.925 10 0 60962 82800.00000 0 23118956.024 8161193.827 -6988668.636 10 0 60962 83700.00000 0 22103982.392 7880047.847 -9960493.851 10 0 60962 84600.00000 0 20718940.075 7636989.625 -12738482.448 10 0 60962 85500.00000 0 18993173.791 7482424.017 -15268571.155 10 0 60963 0.00000 0 16967452.419 7460810.226 -17501531.869 10 0 60963 900.00000 0 14692425.543 7608585.921 -19393934.836 10 0 60963 1800.00000 0 12226681.143 7952442.881 -20908994.629 10 0 60963 2700.00000 0 9634482.220 8508027.750 -22017286.408 10 0 60963 3600.00000 0 6983279.629 9279123.398 -22697315.670 10 0 60963 4500.00000 0 4341103.983 10257345.732 -22935932.025 10 0 60963 5400.00000 0 1773945.354 11422369.019 -22728579.285 10 0 60963 6300.00000 0 -656770.436 12742670.400 -22079377.562 10 0 60963 7200.00000 0 -2896504.482 14176762.372 -21001036.340 10 0 60963 8100.00000 0 -4899630.668 15674861.552 -19514600.692 10 0 60963 9000.00000 0 -6631081.650 17180923.707 -17649035.956 10 0 60963 9900.00000 0 -8067547.783 18634959.658 -15440659.233 10 0 60963 10800.00000 0 -9198180.730 19975534.950 -12932428.942 10 0 60963 11700.00000 0 -10024774.171 21142348.422 -10173106.373 10 0 60963 12600.00000 0 -10561415.942 22078781.519 -7216305.663 10 0 60963 13500.00000 0 -10833628.044 22734311.403 -4119450.765 10 0 60963 14400.00000 0 -10877032.372 23066686.639 -942659.779 10 0 60963 15300.00000 0 -10735599.773 23043774.180 2252421.525 10 0 60963 16200.00000 0 -10459557.446 22645000.234 5403814.246 10 0 60963 17100.00000 0 -10103043.801 21862324.590 8450405.743 10 0 60963 18000.00000 0 -9721610.330 20700707.544 11333130.630 10 0 60963 18900.00000 0 -9369676.212 19178049.806 13996110.692 10 0 60963 19800.00000 0 -9098043.075 17324607.622 16387732.011 10 0 60963 20700.00000 0 -8951574.649 15181907.223 18461638.930 10 0 60963 21600.00000 0 -8967138.892 12801203.258 20177626.255 10 0 60963 22500.00000 0 -9171899.107 10241544.691 21502413.162 10 0 60963 23400.00000 0 -9582025.942 7567527.646 22410284.511 10 0 60963 24300.00000 0 -10201884.610 4846827.469 22883587.740 10 0 60963 25200.00000 0 -11023732.003 2147611.232 22913076.152 10 0 60963 26100.00000 0 -12027937.186 -464063.187 22498092.056 10 0 60963 27000.00000 0 -13183717.127 -2926754.774 21646586.051 10 0 60963 27900.00000 0 -14450358.100 -5185950.830 20374971.593 10 0 60963 28800.00000 0 -15778872.921 -7196087.156 18707816.865 10 0 60963 29700.00000 0 -17114025.847 -8922193.714 16677378.954 10 0 60963 30600.00000 0 -18396641.336 -10341097.841 14322988.257 10 0 60963 31500.00000 0 -19566100.567 -11442135.173 11690293.974 10 0 60963 32400.00000 0 -20562921.264 -12227338.890 8830384.415 10 0 60963 33300.00000 0 -21331312.275 -12711099.582 5798798.457 10 0 60963 34200.00000 0 -21821595.059 -12919310.429 2654447.071 10 0 60963 35100.00000 0 -21992389.165 -12888033.980 -541534.151 10 0 60963 36000.00000 0 -21812468.352 -12661747.267 -3726978.820 10 0 60963 36900.00000 0 -21262207.962 -12291240.201 -6839905.948 10 0 60963 37800.00000 0 -20334560.997 -11831256.911 -9819734.010 10 0 60963 38700.00000 0 -19035520.575 -11337980.914 -12608468.242 10 0 60963 39600.00000 0 -17384048.209 -10866471.638 -15151837.050 10 0 60963 40500.00000 0 -15411469.951 -10468161.839 -17400354.575 10 0 60963 41400.00000 0 -13160365.133 -10188522.785 -19310288.143 10 0 60963 42300.00000 0 -10682993.913 -10064996.773 -20844511.360 10 0 60963 43200.00000 0 -8039329.241 -10125284.948 -21973226.235 10 0 60963 44100.00000 0 -5294775.353 -10386063.112 -22674540.441 10 0 60963 45000.00000 0 -2517667.930 -10852179.875 -22934888.905 10 0 60963 45900.00000 0 223340.060 -11516370.953 -22749292.025 10 0 60963 46800.00000 0 2861898.345 -12359501.531 -22121446.080 10 0 60963 47700.00000 0 5336476.614 -13351326.310 -21063644.622 10 0 60963 48600.00000 0 7592675.155 -14451735.030 -19596532.847 10 0 60963 49500.00000 0 9585233.718 -15612430.893 -17748700.100 10 0 60963 50400.00000 0 11279656.249 -16778971.125 -15556118.718 10 0 60963 51300.00000 0 12653385.271 -17893083.710 -13061440.309 10 0 60963 52200.00000 0 13696478.579 -18895162.809 -10313163.271 10 0 60963 53100.00000 0 14411761.722 -19726837.783 -7364687.853 10 0 60963 54000.00000 0 14814451.702 -20333507.760 -4273277.247 10 0 60963 54900.00000 0 14931269.406 -20666735.066 -1098944.973 10 0 60963 55800.00000 0 14799079.625 -20686396.836 2096709.638 10 0 60963 56700.00000 0 14463117.250 -20362504.280 5251695.193 10 0 60963 57600.00000 0 13974875.402 -19676613.084 8304827.971 10 0 60963 58500.00000 0 13389745.217 -18622765.564 11196914.429 10 0 60963 59400.00000 0 12764507.247 -17207924.834 13871893.712 10 0 60963 60300.00000 0 12154780.306 -15451882.402 16277918.426 10 0 60963 61200.00000 0 11612535.177 -13386642.540 18368353.192 10 0 60963 62100.00000 0 11183777.580 -11055308.412 20102672.303 10 0 60963 63000.00000 0 10906497.588 -8510515.435 21447239.835 10 0 60963 63900.00000 0 10808971.402 -5812476.018 22375957.768 10 0 60963 64800.00000 0 10908486.679 -3026715.674 22870770.213 10 0 60963 65700.00000 0 11210544.982 -221593.108 22922014.395 10 0 60963 66600.00000 0 11708575.160 2534294.154 22528611.703 10 0 60963 67500.00000 0 12384170.304 5174712.385 21698095.023 10 0 60963 68400.00000 0 13207839.161 7638295.795 20446471.270 10 0 60963 69300.00000 0 14140241.535 9870849.243 18797921.059 10 0 60963 70200.00000 0 15133856.888 11827354.718 16784340.362 10 0 60963 71100.00000 0 16135017.061 13473598.695 14444731.899 10 0 60963 72000.00000 0 17086218.486 14787352.900 11824457.049 10 0 60963 72900.00000 0 17928617.089 15759059.434 8974361.802 10 0 60963 73800.00000 0 18604600.913 16391991.736 5949793.052 10 0 60963 74700.00000 0 19060331.744 16701884.837 2809523.969 10 0 60963 75600.00000 0 19248147.765 16716050.652 -385390.663 10 0 60963 76500.00000 0 19128724.834 16472016.001 -3572806.537 10 0 60963 77400.00000 0 18672903.734 16015741.290 -6690705.488 10 0 60963 78300.00000 0 17863104.826 15399495.855 -9678410.189 10 0 60963 79200.00000 0 16694269.080 14679480.735 -12477773.245 10 0 60963 80100.00000 0 15174284.339 13913300.286 -15034316.569 10 0 60963 81000.00000 0 13323877.731 13157390.566 -17298297.994 10 0 60963 81900.00000 0 11175977.772 12464514.094 -19225683.760 10 0 60963 82800.00000 0 8774572.171 11881427.594 -20779007.543 10 0 60963 83700.00000 0 6173108.687 11446821.736 -21928099.265 10 0 60963 84600.00000 0 3432505.536 11189620.076 -22650669.675 10 0 60963 85500.00000 0 618854.168 11127708.945 -22932739.705 99